World > North America > United States > Texas > Eddy  

Eddy, TX Hourly Weather Updates

Feedback E-mail the Weather

Quick Clicks

Eddy, TX Weather Maps

°F °C°F °C
Eddy Weather Map
UTC Time: 6/24/2024, 04:43
Your Time:

Eddy, TX Regional Weather

Expires:202406240500;;558288
ASUS44 KFWD 240415
RWRTX 
NORTH TEXAS HOURLY WEATHER ROUNDUP
NATIONAL WEATHER SERVICE FORT WORTH TX
1100 PM CDT SUN JUN 23 2024

NOTE: "FAIR" INDICATES FEW OR NO CLOUDS BELOW 12,000 FEET WITH NO
SIGNIFICANT WEATHER AND/OR OBSTRUCTIONS TO VISIBILITY.


TXZ143>147-156>162-174-175-240500-
CENTRAL TEXAS
  
CITY           SKY/WX    TMP DP  RH WIND       PRES   REMARKS
WACO           FAIR      78  70  76 S6        29.94R                  
WACO-TSTC      CLEAR     77  70  78 CALM      29.94R                  
WACO-MCGREGOR  FAIR      79  69  71 S3        29.95R                  
HILLSBORO      FAIR      81  71  71 S3        29.95R                  
CORSICANA      FAIR      84  74  71 S3        29.95R HX  91           
MEXIA          FAIR      81  72  75 MISG      29.94R                  
HEARNE         FAIR      82  75  78 CALM      29.94R                  
CAMERON        FAIR      81  74  80 CALM      29.94R                  
TEMPLE         FAIR      81  66  60 SE3       29.96R                  
KILLEEN        FAIR      84  69  61 SE5       29.96R                  
KILLEEN-SKYLRK FAIR      80  69  69 SE5       29.96R                  
FORT CAVAZOS   FAIR      82  70  65 SE5       29.95R                  
GATESVILLE     FAIR      79  72  78 SE3       29.97R                  
HAMILTON       FAIR      79  70  73 CALM      29.99R                  
$$


SKY/WX - Weather  TMP - Temperature  DP - Dew Point  RH - Humidity
WIND - Wind Direction/Speed PRES - Barometric Pressure VSB - Visibility
WCI - Wind Chill Index E13G22 Wind - East Wind 13 mph/Gusts of 22 mph

Trending Headlines

Trending Entertainment Headlines

Eddy Radar Loop

Use the map search tool if you want to place a location marker on the radar map...

Eddy Quick Facts

National Two Day Weather Forecast


E-mail the Eddy Weather Forecast

Voice your opinion or tell us about page issues...